Volver al catálogo

CSC-1

ActivoComunicacionesSSO
NORAD 58022·PAYLOAD·🇳🇱 Netherlands

Lanzado Oct 9, 2023 desde Guiana Space Centre

Loading…

Próximos Pases (próximas 24 horas)

TLE

ActualizadoSource: Space-Track

Época: Sep 13, 2026, 17:17 UTC

1 58022U 23155G   26256.72042929  .00001975  00000-0  12133-3 0  9994
2 58022  97.5289 324.8555 0006494 302.7705  57.2899 15.11227461161107

Sigue CSC-1 en tiempo real con AllMySat

Download on the App Store